Hourly Data Report for May 06, 2004

SHERBROOKE A
QUEBEC

45°26'00.000" N
71°41'00.000" W
241.40 m
7028124
71610
YSC

Download Data

Hourly Data (May 2004)
Hourly Data Report for May 6, 2004
TIME
LST
Temp Definition
°C
Dew Point Definition
°C
Rel Hum Definition
%
Precip. Amount Definition
mm

Wind Dir Definition
10's deg

Wind Spd Definition
km/h
Visibility Definition
km
Stn Press Definition
kPa
Hmdx Definition


Wind Chill Definition


Weather Definition


00:00 6.7 5.6 93     0 4.8 98.63      
01:00 6.7 5.6 93     0 4.8 98.63      
02:00 6.7 5.5 92   23 4 4.8 98.62      
03:00 6.6 5.5 93   23 6 4.8 98.65      
04:00 6.5 5.5 93   23 4 3.5 98.74     Drizzle
05:00 6.4 5.4 93   21 4 3.2 98.81      
06:00 6.8 5.6 92   17 4 4.8 98.81      
07:00 7.9 5.3 84   23 9 24.1 98.80     Mostly Cloudy
08:00 8.6 4.6 76   25 13 24.1 98.81     Cloudy
09:00 9.6 4.3 69   23 11 24.1 98.75     Mostly Cloudy
10:00 11.1 4.8 65   21 11 24.1 98.69     Mostly Cloudy
11:00 13.8 5.7 58   22 11 24.1 98.62     Mostly Cloudy
12:00 13.5 4.7 55   25 19 24.1 98.62     Cloudy
13:00 14.9 5.7 54   22 17 24.1 98.45     Mainly Clear
14:00 16.6 5.5 48   19 13 24.1 98.34     Mostly Cloudy
15:00 16.7 4.3 44   21 17 24.1 98.22     Mostly Cloudy
16:00 16.7 4.7 45   22 20 24.1 98.14     Rain Showers
17:00 16.8 5.5 47   21 13 15.0 98.15      
18:00 16.0 6.5 53   23 6 15.0 98.17      
19:00 16.1 5.6 50   24 26 15.0 98.15      
20:00 11.4 9.0 85   25 9 15.0 98.22     Rain
21:00 11.3 8.8 85   22 6 15.0 98.21      
22:00 11.2 8.9 86   16 6 15.0 98.15      
23:00 10.2 8.5 89     0 15.0 98.05      

Notes on Data Quality.

Legend

  • E = Estimated
  • M = Missing
  • NA = Not Available*
  • [empty] = Indicates an unobserved value
Date modified: